Weather in Chai Nat

Thailand     15°12′03″N   100°10′14″E
temp.,
°C
wind,
m/s
gust,
m/s
humid.,
%
clouds,
%
prec.,
mm/h
press.,
hPa
HPBL,
m
18 may, tue
tue1801:00+29ssw4106593 0.1 1006332
04:00+28s3875100 0.0 1006292
07:00+29s497693 0.0 1007426
10:00+35s56505 0.0 10081203
13:00+39s443719 0.0 10052393
16:00+39ssw433360 0.0 10032782
19:00+35sse364393 0.0 1003128
22:00+31ssw7125697 0.0 1007605
19 may, wed
wed1901:00+29s5116899 0.0 1006555
04:00+29s51075100 0.0 1005482
07:00+29s477617 0.0 1007444
10:00+35sw335072 0.0 10081275
13:00+39sw3337100 0.0 10052731
16:00+37wsw344099 0.2 1002634
19:00+33wsw245091 0.2 100391
22:00+31s495880 0.0 1006338
20 may, thu
thu2001:00+29sse256494 0.0 1005143
04:00+28s2469100 0.0 1005107
07:00+29s1167100 0.0 1006150
10:00+34sw1150100 0.0 10071038
13:00+38sw3337100 0.0 10041947
16:00+38ssw4333100 0.0 10022283
19:00+34s364393 0.0 1002123
22:00+32s7115478 0.0 1005517
21 may, fri
fri2101:00+30s486374 0.0 1005385
04:00+29s4868100 0.0 1003357
07:00+29s356918 0.0 1005318
10:00+35wnw12486 0.0 10061237
13:00+39w23349 0.0 10032408
16:00+40sw543019 0.0 10002744
19:00+35s3540100 0.0 1001112
22:00+32s6105514 0.0 1004579
22 may, sat
sat2201:00+30ssw5963100 0.0 1003425
04:00+28s4868100 0.3 1003339
07:00+29s576883 0.3 1005419
10:00+33ssw335486 0.0 10061043
13:00+37s3340100 0.0 10032112
16:00+38s333549 0.0 10002251
19:00+34s7114698 0.0 1001618
22:00+31s61058100 0.0 1004602